Weather in Bambari

Central African Republic     5°45′52″N   20°40′47″E
temp.,
°C
wind,
m/s
gust,
m/s
humid.,
%
clouds,
%
prec.,
mm/h
press.,
hPa
HPBL,
m
27 september, mon
mon2701:00+21nne119783 0.9 101211
04:00+20e1196100 0.0 101211
07:00+22nne119120 0.0 1013130
10:00+29ene11648 0.0 1012819
13:00+31nne015623 0.0 10091657
16:00+27nnw117389 0.1 100749
19:00+25nne117364 0.1 100913
22:00+23wsw118245 0.0 101111
28 september, tue
tue2801:00+21n1191100 0.6 101011
04:00+21ene119497 0.5 101011
07:00+22se019469 2.3 1013147
10:00+27s118090 1.4 1012433
13:00+28se127599 4.4 1009745
16:00+28e017258 0.1 10071037
19:00+24ssw1187100 0.1 100911
22:00+22ssw1196100 3.1 101111
29 september, wed
wed2901:00+21n0097100 3.7 101011
04:00+22w0096100 0.0 101011
07:00+23ene019393 0.0 1012107
10:00+28s1176100 1.5 1011453
13:00+30ssw2260100 1.6 10081371
16:00+28wsw1282100 1.0 1007132
19:00+23nnw1190100 3.3 100911
22:00+22sw1196100 0.8 101112
30 september, thu
thu3001:00+22nw1196100 2.1 101011
04:00+22nne1196100 0.0 101011
07:00+23nne1293100 0.0 1012125
10:00+29wsw116919 0.0 1012679
13:00+32s025724 0.0 10081652
16:00+27s2285100 2.3 100728
19:00+24e1190100 6.9 100912
22:00+22e1194100 0.3 101025
1 october, fri
fri101:00+22ese0096100 0.6 100911
04:00+22ne0196100 0.0 101011
07:00+24sse129195 0.0 1012134
10:00+24s2483100 0.0 1013376
13:00+29ssw226538 0.0 1009906
16:00+28w117313 0.0 1008962
19:00+24wnw11866 0.2 100914
22:00+22n1194100 0.3 101011